When you browse on this site, cookies collect data to enhance your experience and personalize the content and advertising you see.
Visit our Privacy Policy to learn more. By continuing to use the site, you agree to this use of cookies and data.

Previsão horária em Perovo

Hoje, 8 Julho, Quarta-feira

Tempo Temperatura Precipitação Vento Pressão Humidade
00:00 +25°C° 0 mm 5 m/s 742 mmHg 83%
01:00 +23°C° 0 mm 4 m/s 742 mmHg 84%
02:00 +22°C° 0 mm 3 m/s 742 mmHg 85%
03:00 +21°C° 0 mm 2 m/s 742 mmHg 85%
04:00 +23°C° 0 mm 2 m/s 742 mmHg 85%
05:00 +23°C° 0 mm 2 m/s 742 mmHg 84%
06:00 +22°C° 0 mm 3 m/s 742 mmHg 83%
07:00 +24°C° 0 mm 3 m/s 742 mmHg 80%
08:00 +25°C° 0 mm 3 m/s 742 mmHg 77%
09:00 +26°C° 0 mm 3 m/s 742 mmHg 73%
10:00 +27°C° 0 mm 2 m/s 742 mmHg 70%
11:00 +28°C° 0 mm 2 m/s 742 mmHg 66%
12:00 +29°C° 0 mm 2 m/s 742 mmHg 63%
13:00 +29°C° 0 mm 2 m/s 743 mmHg 64%
14:00 +29°C° 0 mm 3 m/s 743 mmHg 65%
15:00 +29°C° 0 mm 3 m/s 743 mmHg 67%
16:00 +27°C° 1.8 mm 3 m/s 743 mmHg 75%
17:00 +25°C° 1.8 mm 3 m/s 743 mmHg 84%
18:00 +22°C° 1.8 mm 4 m/s 744 mmHg 93%
19:00 +21°C° 0.3 mm 3 m/s 744 mmHg 94%
20:00 +20°C° 0.3 mm 3 m/s 744 mmHg 95%
21:00 +19°C° 0.3 mm 3 m/s 744 mmHg 97%
22:00 +18°C° 0.2 mm 2 m/s 745 mmHg 97%
23:00 +18°C° 0.2 mm 2 m/s 745 mmHg 97%

Amanhã, 9 Julho, Quinta-feira

Tempo Temperatura Precipitação Vento Pressão Humidade
00:00 +19°C° 0.2 mm 1 m/s 745 mmHg 97%
01:00 +18°C° 0.4 mm 2 m/s 745 mmHg 97%
02:00 +17°C° 0.4 mm 3 m/s 745 mmHg 97%
03:00 +17°C° 0.4 mm 3 m/s 745 mmHg 97%
04:00 +17°C° 0.5 mm 3 m/s 745 mmHg 96%
05:00 +15°C° 0.5 mm 4 m/s 745 mmHg 96%
06:00 +15°C° 0.5 mm 4 m/s 746 mmHg 95%
07:00 +15°C° 0.6 mm 4 m/s 746 mmHg 94%
08:00 +17°C° 0.6 mm 4 m/s 746 mmHg 93%
09:00 +17°C° 0.6 mm 4 m/s 746 mmHg 92%
10:00 +18°C° 0.2 mm 4 m/s 746 mmHg 89%
11:00 +18°C° 0.2 mm 3 m/s 747 mmHg 85%
12:00 +19°C° 0.2 mm 3 m/s 747 mmHg 82%
13:00 +20°C° 0 mm 3 m/s 747 mmHg 78%
14:00 +21°C° 0 mm 3 m/s 747 mmHg 74%
15:00 +21°C° 0 mm 3 m/s 747 mmHg 70%
16:00 +22°C° 0 mm 3 m/s 747 mmHg 70%
17:00 +23°C° 0 mm 2 m/s 747 mmHg 70%
18:00 +23°C° 0 mm 2 m/s 747 mmHg 71%
19:00 +20°C° 0 mm 2 m/s 747 mmHg 76%
20:00 +19°C° 0 mm 2 m/s 747 mmHg 81%
21:00 +17°C° 0 mm 2 m/s 747 mmHg 86%
22:00 +16°C° 0 mm 2 m/s 748 mmHg 88%
23:00 +15°C° 0 mm 2 m/s 748 mmHg 89%

Depois de amanhã, 10 Julho, Sexta-feira

Tempo Temperatura Precipitação Vento Pressão Humidade
00:00 +15°C° 0 mm 2 m/s 748 mmHg 90%
01:00 +14°C° 0 mm 2 m/s 749 mmHg 90%
02:00 +14°C° 0 mm 2 m/s 749 mmHg 91%
03:00 +12°C° 0 mm 3 m/s 749 mmHg 91%
04:00 +13°C° 0 mm 3 m/s 749 mmHg 90%
05:00 +13°C° 0 mm 3 m/s 750 mmHg 88%
06:00 +14°C° 0 mm 3 m/s 750 mmHg 87%
07:00 +16°C° 0 mm 3 m/s 750 mmHg 81%
08:00 +18°C° 0 mm 3 m/s 751 mmHg 75%
09:00 +19°C° 0 mm 3 m/s 751 mmHg 69%
10:00 +20°C° 0 mm 3 m/s 751 mmHg 64%
11:00 +21°C° 0 mm 4 m/s 752 mmHg 59%
12:00 +22°C° 0 mm 4 m/s 752 mmHg 54%
13:00 +22°C° 0 mm 4 m/s 752 mmHg 53%
14:00 +22°C° 0 mm 4 m/s 752 mmHg 52%
15:00 +23°C° 0 mm 4 m/s 752 mmHg 51%
16:00 +24°C° 0 mm 3 m/s 752 mmHg 54%
17:00 +22°C° 0 mm 3 m/s 752 mmHg 57%
18:00 +23°C° 0 mm 2 m/s 753 mmHg 60%
19:00 +20°C° 0 mm 2 m/s 753 mmHg 65%
20:00 +19°C° 0 mm 2 m/s 753 mmHg 70%
21:00 +17°C° 0 mm 2 m/s 754 mmHg 76%
22:00 +16°C° 0 mm 2 m/s 754 mmHg 78%
23:00 +15°C° 0 mm 2 m/s 754 mmHg 81%

11 Julho, Sábado

Tempo Temperatura Precipitação Vento Pressão Humidade
00:00 +15°C° 0 mm 2 m/s 754 mmHg 84%
01:00 +14°C° 0 mm 2 m/s 755 mmHg 85%
02:00 +14°C° 0 mm 1 m/s 755 mmHg 87%
03:00 +13°C° 0 mm 1 m/s 755 mmHg 88%
04:00 +14°C° 0 mm 1 m/s 755 mmHg 86%
05:00 +15°C° 0 mm 1 m/s 756 mmHg 85%
06:00 +16°C° 0 mm 1 m/s 756 mmHg 83%
07:00 +18°C° 0 mm 1 m/s 756 mmHg 78%
08:00 +20°C° 0 mm 1 m/s 756 mmHg 73%
09:00 +22°C° 0 mm 1 m/s 756 mmHg 67%
10:00 +23°C° 0 mm 2 m/s 756 mmHg 63%
11:00 +24°C° 0 mm 2 m/s 756 mmHg 59%
12:00 +25°C° 0 mm 3 m/s 756 mmHg 55%
13:00 +25°C° 0 mm 3 m/s 756 mmHg 55%
14:00 +25°C° 0 mm 3 m/s 756 mmHg 56%
15:00 +26°C° 0 mm 3 m/s 755 mmHg 56%
16:00 +25°C° 0 mm 3 m/s 755 mmHg 60%
17:00 +25°C° 0 mm 3 m/s 755 mmHg 64%
18:00 +25°C° 0 mm 3 m/s 755 mmHg 68%
19:00 +23°C° 0 mm 2 m/s 755 mmHg 73%
20:00 +20°C° 0 mm 2 m/s 755 mmHg 79%
21:00 +19°C° 0 mm 2 m/s 755 mmHg 85%
22:00 +18°C° 0 mm 2 m/s 755 mmHg 86%
23:00 +17°C° 0 mm 2 m/s 755 mmHg 88%

12 Julho, Domingo

Tempo Temperatura Precipitação Vento Pressão Humidade
00:00 +17°C° 0 mm 2 m/s 755 mmHg 89%
01:00 +16°C° 0 mm 2 m/s 755 mmHg 90%
02:00 +16°C° 0 mm 2 m/s 755 mmHg 91%
03:00 +16°C° 0 mm 2 m/s 755 mmHg 92%
04:00 +16°C° 0 mm 2 m/s 755 mmHg 90%
05:00 +17°C° 0 mm 2 m/s 755 mmHg 89%
06:00 +17°C° 0 mm 2 m/s 755 mmHg 87%
07:00 +19°C° 0 mm 2 m/s 755 mmHg 81%
08:00 +21°C° 0 mm 3 m/s 755 mmHg 76%
09:00 +22°C° 0 mm 3 m/s 755 mmHg 71%
10:00 +24°C° 0 mm 3 m/s 754 mmHg 67%
11:00 +25°C° 0 mm 3 m/s 754 mmHg 63%
12:00 +26°C° 0 mm 3 m/s 754 mmHg 60%
13:00 +26°C° 0 mm 3 m/s 754 mmHg 59%
14:00 +27°C° 0 mm 3 m/s 753 mmHg 58%
15:00 +27°C° 0 mm 3 m/s 753 mmHg 58%
16:00 +27°C° 0 mm 3 m/s 753 mmHg 60%
17:00 +26°C° 0 mm 2 m/s 752 mmHg 63%
18:00 +26°C° 0 mm 2 m/s 752 mmHg 66%
19:00 +24°C° 0 mm 2 m/s 752 mmHg 71%
20:00 +21°C° 0 mm 2 m/s 752 mmHg 76%
21:00 +21°C° 0 mm 1 m/s 752 mmHg 81%
22:00 +20°C° 0 mm 1 m/s 752 mmHg 83%
23:00 +19°C° 0 mm 1 m/s 752 mmHg 84%

13 Julho, Segunda-feira

Tempo Temperatura Precipitação Vento Pressão Humidade
00:00 +18°C° 0 mm 1 m/s 752 mmHg 86%
01:00 +18°C° 0 mm 1 m/s 752 mmHg 87%
02:00 +18°C° 0 mm 1 m/s 752 mmHg 88%
03:00 +15°C° 0 mm 0 m/s 752 mmHg 88%
04:00 +18°C° 0 mm 1 m/s 751 mmHg 87%
05:00 +18°C° 0 mm 1 m/s 751 mmHg 86%
06:00 +19°C° 0 mm 1 m/s 751 mmHg 86%
07:00 +21°C° 0 mm 1 m/s 751 mmHg 79%
08:00 +21°C° 0 mm 2 m/s 751 mmHg 73%
09:00 +24°C° 0 mm 2 m/s 751 mmHg 67%
10:00 +25°C° 0 mm 2 m/s 751 mmHg 63%
11:00 +26°C° 0 mm 2 m/s 750 mmHg 58%
12:00 +27°C° 0 mm 3 m/s 750 mmHg 54%
13:00 +27°C° 0 mm 3 m/s 750 mmHg 53%
14:00 +28°C° 0 mm 3 m/s 750 mmHg 53%
15:00 +28°C° 0 mm 3 m/s 749 mmHg 52%
16:00 +27°C° 0.1 mm 2 m/s 749 mmHg 59%
17:00 +25°C° 0.1 mm 2 m/s 749 mmHg 66%
18:00 +24°C° 0.1 mm 2 m/s 748 mmHg 73%
19:00 +23°C° 0 mm 2 m/s 748 mmHg 74%
20:00 +21°C° 0 mm 3 m/s 748 mmHg 74%
21:00 +21°C° 0 mm 3 m/s 748 mmHg 74%
22:00 +20°C° 0 mm 3 m/s 748 mmHg 76%
23:00 +20°C° 0 mm 3 m/s 748 mmHg 78%
Mostrar mais